Flag for Philippines Weather past 2 weeks in Mabalacat, Philippines

Now
86 °F

Broken clouds.


Feels Like: 95 °F
Forecast: 80 / 90 °F
Wind: 5 mph from North

Location: Clarkfield Pampanga International Airport

Current Time: May 28, 2015 at 7:00:38 PM

Latest Report: May 28, 2015 at 6:00 PM


Visibility: N/A

Pressure: 29.80 "Hg

Humidity: 70%

Dew point: 75 °F

Location of MabalacatLocation

Historic Weather in Mabalacat — Graph

°F

Mabalacat temperature yesterday

Maximum temperature yesterday: 90 °F (at 11:00 AM)
Minimum temperature yesterday: 77 °F (at 1:00 AM)
Average temperature yesterday: 83 °F

Past Weeks' High & Low Weather Summary

 TemperatureHumidityPressure
High97 °F (May 16, 4:00 PM)100% (May 24, 11:00 PM)30.01 "Hg (May 24, 11:00 PM)
Low75 °F (May 25, 4:00 PM)32% (May 16, 4:00 PM)29.77 "Hg (May 16, 3:00 PM)
Average84 °F73%29.87 "Hg
* Reported May 13 6:00 PM — May 28 6:00 PM, Mabalacat, Weather by CustomWeather, © 2015

Note: Actual official high and low records may vary slightly from our data, if they occured in-between our weather recording intervals... More about our weather records

Advertising

Mabalacat weather history for previous 24 hours

 ConditionsComfort  
Time TempWeatherWind HumidityBarometerVisibility
6:00 PM
Thu, May 28
86 °FBroken clouds.5 mph70%29.80 "HgN/A
5:00 PM88 °FBroken clouds.5 mph59%29.77 "HgN/A
4:00 PM84 °FPartly sunny.6 mph66%29.77 "HgN/A
3:00 PM84 °FPartly sunny.14 mph74%29.77 "HgN/A
2:00 PM90 °FPartly sunny.8 mph63%29.77 "HgN/A
1:00 PM91 °FBroken clouds.6 mph56%29.80 "HgN/A
12:00 PM88 °FBroken clouds.13 mph66%29.83 "HgN/A
11:00 AM88 °FPartly sunny.1 mph62%29.83 "HgN/A
10:00 AM88 °FBroken clouds.7 mph66%29.86 "Hg6 mi
9:00 AM86 °FPartly sunny.6 mph75%29.86 "Hg6 mi
8:00 AM84 °FPartly sunny.3 mph79%29.86 "Hg5 mi
7:00 AM79 °FPartly sunny.3 mph94%29.83 "Hg5 mi
6:00 AM77 °FPartly sunny.2 mph94%29.83 "HgN/A
5:00 AM77 °FPassing clouds.1 mph100%29.80 "HgN/A
4:00 AM77 °FPassing clouds.1 mph100%29.83 "HgN/A
3:00 AM77 °FPassing clouds.1 mph100%29.80 "HgN/A
2:00 AM79 °FPassing clouds.3 mph94%29.83 "HgN/A
1:00 AM79 °FPassing clouds.2 mph94%29.83 "HgN/A
12:00 AM79 °FPassing clouds.3 mph94%29.86 "HgN/A
11:00 PM
Wed, May 27
81 °FPassing clouds.2 mph89%29.89 "HgN/A
10:00 PM81 °FPassing clouds.2 mph89%29.89 "HgN/A
9:00 PM79 °FPassing clouds.6 mph89%29.86 "HgN/A
8:00 PM82 °FPartly cloudy.3 mph79%29.86 "HgN/A
7:00 PM84 °FPassing clouds.9 mph70%29.83 "HgN/A
Weather by CustomWeather, © 2015

See weather overviewHow to use our weather pages